Hourly Weather Roundup
Issued by NWS Central Illinois

Home | Current Version | Previous Version | Text Only | Print | Product List | Glossary On
Versions: 1 2 3 4 5 6 7 8 9 10 11 12 13 14 15 16 17 18 19 20 21 22 23 24 25 26 27 28 29 30 31 32 33 34 35 36 37 38 39 40 41 42 43 44 45 46 47 48 49 50
000
NZUS43 KILX 270110
HWRILX

AREA WEATHER ROUNDUP
NATIONAL WEATHER SERVICE, LINCOLN IL
700 PM CST FRI DEC 26 2014


CITY           SKY/WX    TMP DP  RH WIND       PRES   REMARKS
BLOOMINGTON    PTCLDY    42  41  97 S10       30.03S
CHAMPAIGN      MOCLDY    46  42  86 S12       30.06R
DECATUR        MOCLDY    48  43  82 S13       30.05R
FLORA          PTCLDY    46  42  85 S7        30.10S
GALESBURG      CLOUDY    46  41  82 CALM      29.98R
JACKSONVILLE   CLOUDY    52  45  76 SE8       29.99R
LACON          CLOUDY    47  41  81 S9        30.00F
LAWRENCEVILLE  PTCLDY    44  40  85 S10       30.11S
LITCHFIELD     PTCLDY    47  42  84 S16       30.04R
$$


CITY           SKY/WX    TMP DP  RH WIND       PRES   REMARKS
LINCOLN        CLOUDY    47  43  85 S6        30.02S
MACOMB         CLOUDY    46  42  85 E3        29.99F
MATTOON        PTCLDY    48  43  82 S8        30.07R
MT CARMEL AP   PTCLDY    50  41  71 S7        30.12R
OLNEY-NOBLE AP PTCLDY    46  41  81 CALM      30.10S
PARIS          MOCLDY    46  43  89 S10       30.09S
PEORIA         CLOUDY    50  42  74 S8        30.00F
PONTIAC        PTCLDY    43  41  94 S7        30.04R
RANTOUL        PTCLDY    42  41  95 S6        30.06R
ROBINSON       MOCLDY    46  41  82 S7        30.11S
SPRINGFIELD    CLOUDY    51  43  74 S14G24    30.02S
TAYLORVILLE    PTCLDY    46  43  87 S14G24    30.04S
$$

...REGIONAL REPORTS...


CITY           SKY/WX    TMP DP  RH WIND       PRES   REMARKS
CHICAGO O`HARE CLOUDY    46  39  76 S5        30.01S
KANKAKEE       CLOUDY    47  44  87 S9        30.05S
MOLINE         CLOUDY    42  37  82 CALM      29.97S
MOUNT VERNON   MOCLDY    46  39  76 S5        30.11R
PITTSFIELD     MOCLDY    49  43  78 SE7       29.99R
QUINCY         CLOUDY    49  42  77 SE6       29.96R
ROCKFORD       CLOUDY    43  38  82 S3        30.02S
$$


CITY           SKY/WX    TMP DP  RH WIND       PRES   REMARKS
BURLINGTON     CLOUDY    49  42  77 SE3       29.96S
CEDAR RAPIDS   CLOUDY    37  33  85 N3        29.97S
DES MOINES     CLOUDY    35  31  85 N6        29.98S WCI  30
KIRKSVILLE     LGT RAIN  48  44  86 CALM      29.94S
OTTUMWA        CLOUDY    38  34  85 N9        29.96S WCI  31
ST LOUIS       DRIZZLE   55  42  61 S13       30.03R
$$


CITY           SKY/WX    TMP DP  RH WIND       PRES   REMARKS
TERRE HAUTE    CLOUDY    49  42  77 S9        30.10S
EVANSVILLE     PTCLDY    51  40  65 SE3       30.14S
INDIANAPOLIS   MOCLDY    45  39  79 S7        30.11S
LAFAYETTE      CLOUDY    45  40  82 S6        30.08S
MADISON        MOCLDY    36  32  85 CALM      29.99R
MILWAUKEE      CLOUDY    41  35  79 CALM      30.02R
$$




USA.gov is the U.S. government's official web portal to all federal, state and local government web resources and services.